PARS 1

Last updated on Thu Jul 03 2025 00:02:31 GMT+0000 (Coordinated Universal Time)

1 59065U 24039Q 25183.55951072 .00007030 00000+0 19719-3 0 9995 2 59065 97.4405 151.8539 0009534 300.3187 59.7113 15.36857849 74790
UTC large
Height (km)
Speed (km/s)
/
Latitude / Longitude
Inclination (degrees)
Orbital Period (minutes)
Azimuth
Elevation
Range (km)
Doppler Factor

Next 0 passes for location: London (51.5072 / 0.1276)

Sorry there are no passes over London.